北斗三号 M25 (BEIDOU 3M25)

基本信息
目录编号:
61186
目录名称:
BEIDOU 3M25
国际标识:
2024-168B
轨道中心:
EARTH
卫星名称:
北斗三号 M25
卫星全名:
北斗三号 M25 (BEIDOU 3M25)
卫星状态:
在轨 (已飞行402 天)
发射日期:
2024-09-19 UTC
国别 :
中国 (CN)
星等 :
--
轨道信息
数据来源 国际轨道数据 AOE轨道数据
星历时间 2025-10-24T19:22:32+0800
2天前
查看轨道信息
2025-10-26T06:00:00+0800
14小时前
查看轨道信息
半长轴 27906.259km 27906.279km
偏心率 0.0005446 0.0005463
轨道倾角 54.685° 54.684°
近地点辐角 285.726° 285.377°
升交点赤经 310.428° 310.378°
平近点角 259.037° 146.632°
近地点 21512.926km 21512.898km
远地点 21543.322km 21543.39km
周期 773.236分钟 773.237分钟
每日圈数 1.862303 1.862301
详细信息
使用方式:
暂无
2D轨道图
3D轨道图
轨道高度分析图
轨道倾角分析图
轨道综合分析图
查看轨道综合分析图